Latest Weather Observations for Collie East

IDW60801

Issued at 8:05 pm WST Saturday 30 August 2014 (issued every 30 minutes, with the page automatically refreshed every 10 minutes)

About weather observations | Map of weather stations | Latest weather observations for WA | Other Formats
Station Details ID: 009994 Name: COLLIE EAST Lat: -33.36 Lon: 116.17 Height: 200.0 m
Data from the previous 72 hours. | See also: Recent months at Collie East
Date/Time
WST
Temp
°C
App
Temp
°C
Dew
Point
Rel
Hum
%
Delta-T
°C
Wind Press
QNH
hPa
Press
MSL
hPa
Rain
since 9 am
mm
Dir
 
Spd
km/h
Gust
km/h
Spd
kts
Gust
kts
30/08:00pm 10.7 10.3 8.3 85 1.2 CALM 0 0 0 0 - - 0.2
30/07:30pm 11.3 10.9 8.3 82 1.5 CALM 0 0 0 0 - - 0.2
30/07:00pm 11.6 10.5 8.3 80 1.6 WSW 4 7 2 4 - - 0.0
30/06:30pm 11.9 10.3 8.6 80 1.7 SW 7 11 4 6 - - 0.0
30/06:00pm 12.3 11.7 9.0 80 1.7 SSW 2 6 1 3 - - 0.0
30/05:30pm 12.9 12.6 8.6 75 2.2 CALM 0 0 0 0 - - 0.0
30/05:00pm 13.3 12.1 8.2 71 2.6 SW 4 7 2 4 - - 0.0
30/04:30pm 13.8 12.0 7.3 65 3.2 W 6 11 3 6 - - 0.0
30/04:00pm 14.3 12.3 6.9 61 3.6 W 7 15 4 8 - - 0.0
30/03:30pm 14.7 12.8 7.7 63 3.5 SW 7 11 4 6 - - 0.0
30/03:00pm 14.6 12.6 7.2 61 3.7 WSW 7 13 4 7 - - 0.0
30/02:30pm 14.7 12.5 7.7 63 3.5 SW 9 15 5 8 - - 0.0
30/02:00pm 14.7 13.0 8.2 65 3.3 WSW 7 11 4 6 - - 0.0
30/01:30pm 14.9 13.1 7.9 63 3.5 WSW 7 11 4 6 - - 0.0
30/01:00pm 15.1 13.0 8.3 64 3.5 W 9 19 5 10 - - 0.0
30/12:30pm 15.3 13.8 8.3 63 3.6 WSW 6 11 3 6 - - 0.0
30/12:00pm 14.9 13.2 8.2 64 3.4 WSW 7 13 4 7 - - 0.0
30/11:30am 15.3 13.9 8.8 65 3.3 SSW 6 11 3 6 - - 0.0
30/11:00am 14.5 13.0 9.1 70 2.8 SSW 7 13 4 7 - - 0.0
30/10:30am 14.4 13.0 9.4 72 2.6 SW 7 17 4 9 - - 0.0
30/10:00am 13.6 12.2 9.5 76 2.1 S 7 15 4 8 - - 0.0
30/09:30am 12.9 11.6 9.9 82 1.6 SSW 7 13 4 7 - - 0.0
30/09:00am 12.9 12.0 10.8 87 1.1 SSW 6 13 3 7 - - 21.6
30/08:30am 12.9 12.2 11.3 90 0.9 SSW 6 11 3 6 - - 21.6
30/08:00am 12.3 12.3 11.2 93 0.6 WSW 2 7 1 4 - - 21.6
30/07:30am 12.0 12.3 10.9 93 0.6 CALM 0 0 0 0 - - 21.6
30/07:00am 11.9 11.4 10.8 93 0.6 SW 4 6 2 3 - - 21.6
30/06:30am 12.3 11.4 11.4 94 0.5 SSW 7 13 4 7 - - 21.6
30/06:00am 12.6 13.1 11.7 94 0.5 CALM 0 0 0 0 - - 21.2
30/05:30am 12.5 13.0 11.6 94 0.5 CALM 0 0 0 0 - - 21.2
30/05:00am 12.8 13.4 11.9 94 0.5 CALM 0 0 0 0 - - 21.0
30/04:30am 12.9 12.8 12.0 94 0.5 SSW 4 7 2 4 - - 21.0
30/04:00am 13.0 13.7 12.1 94 0.5 CALM 0 0 0 0 - - 21.0
30/03:30am 13.0 13.7 12.1 94 0.5 CALM 0 0 0 0 - - 21.0
30/03:00am 13.3 14.1 12.4 94 0.5 CALM 0 0 0 0 - - 21.0
30/02:30am 13.4 14.2 12.5 94 0.5 CALM 0 0 0 0 - - 21.0
30/02:00am 13.5 14.3 12.6 94 0.5 CALM 0 0 0 0 - - 21.0
30/01:30am 13.3 13.6 12.2 93 0.6 WSW 2 7 1 4 - - 20.8
30/01:00am 13.5 13.2 12.6 94 0.5 WNW 6 7 3 4 - - 20.8
30/12:30am 13.6 14.0 12.5 93 0.6 WNW 2 7 1 4 - - 20.0
30/12:00am 13.7 13.8 12.6 93 0.6 NW 4 9 2 5 - - 19.0
 
Date/Time
WST
Temp
°C
App
Temp
°C
Dew
Point
Rel
Hum
%
Delta-T
°C
Wind Press
QNH
hPa
Press
MSL
hPa
Rain
since 9 am
mm
Dir
 
Spd
km/h
Gust
km/h
Spd
kts
Gust
kts
29/11:30pm 13.8 12.9 12.7 93 0.6 NW 9 13 5 7 - - 18.8
29/11:00pm 14.0 13.8 13.1 94 0.5 WNW 6 9 3 5 - - 18.8
29/10:30pm 13.9 13.4 12.8 93 0.6 NNW 7 9 4 5 - - 18.8
29/10:00pm 14.0 14.2 12.9 93 0.6 NNE 4 9 2 5 - - 18.6
29/09:30pm 14.1 13.7 13.1 94 0.6 NNW 7 13 4 7 - - 18.0
29/09:00pm 14.1 13.9 13.0 93 0.6 NNW 6 7 3 4 - - 17.2
29/08:30pm 14.2 13.8 13.1 93 0.6 NW 7 11 4 6 - - 16.8
29/08:00pm 14.4 14.3 13.4 94 0.6 WNW 6 9 3 5 - - 16.8
29/07:30pm 14.5 14.3 13.5 94 0.6 WNW 7 15 4 8 - - 16.0
29/07:00pm 14.5 13.9 13.5 94 0.6 NW 9 15 5 8 - - 15.8
29/06:30pm 14.5 14.8 13.4 93 0.6 WNW 4 7 2 4 - - 15.0
29/06:00pm 14.5 14.4 13.4 93 0.6 NW 6 9 3 5 - - 14.6
29/05:30pm 14.5 14.4 13.4 93 0.6 NW 6 9 3 5 - - 14.6
29/05:00pm 14.5 14.2 13.4 93 0.6 WNW 7 11 4 6 - - 14.6
29/04:30pm 14.6 14.4 13.5 93 0.6 WSW 7 13 4 7 - - 12.8
29/04:00pm 14.9 14.8 13.8 93 0.6 NW 7 11 4 6 - - 12.0
29/03:30pm 14.9 14.0 13.6 92 0.7 WNW 11 19 6 10 - - 11.2
29/03:00pm 15.0 14.4 13.5 91 0.8 W 9 15 5 8 - - 9.6
29/02:30pm 15.8 14.9 13.8 88 1.1 WNW 11 20 6 11 - - 7.8
29/02:00pm 16.2 14.3 13.1 82 1.7 NNW 15 24 8 13 - - 7.6
29/01:30pm 16.3 13.7 13.2 82 1.7 NW 19 30 10 16 - - 7.6
29/01:00pm 16.0 15.1 13.8 87 1.3 NW 11 17 6 9 - - 7.6
29/12:30pm 15.2 14.1 13.1 87 1.2 WNW 11 19 6 10 - - 7.6
29/12:00pm 14.5 13.8 13.2 92 0.7 NNW 9 15 5 8 - - 7.4
29/11:30am 13.9 13.4 12.8 93 0.6 NW 7 13 4 7 - - 6.8
29/11:00am 13.7 12.4 12.4 92 0.7 NW 11 20 6 11 - - 5.6
29/10:30am 14.1 12.9 12.7 91 0.8 WNW 11 20 6 11 - - 4.0
29/10:00am 14.5 13.4 13.0 91 0.8 W 11 22 6 12 - - 2.6
29/09:30am 14.6 13.9 13.3 92 0.7 W 9 22 5 12 - - 1.2
29/09:00am 14.9 14.3 13.6 92 0.7 W 9 17 5 9 - - 12.8
29/08:30am 15.6 15.3 14.5 93 0.6 W 9 19 5 10 - - 11.0
29/08:00am 15.2 14.4 14.1 93 0.6 NW 11 19 6 10 - - 10.6
29/07:30am 14.7 14.2 13.7 94 0.6 NNW 9 13 5 7 - - 10.4
29/07:00am 14.3 13.6 13.2 93 0.6 NNW 9 11 5 6 - - 10.4
29/06:30am 14.0 13.2 12.9 93 0.6 NNW 9 11 5 6 - - 10.2
29/06:00am 13.9 13.1 12.8 93 0.6 NNW 9 13 5 7 - - 10.2
29/05:30am 14.0 12.7 12.6 91 0.8 NW 11 20 6 11 - - 8.8
29/05:00am 14.4 11.4 12.6 89 1.0 NNW 20 28 11 15 - - 3.8
29/04:30am 17.1 13.8 14.0 82 1.8 NNW 24 44 13 24 - - 0.0
29/04:00am 17.5 14.5 13.8 79 2.1 NW 22 37 12 20 - - 0.0
29/03:30am 17.7 14.3 13.6 77 2.3 NW 24 39 13 21 - - 0.0
29/03:00am 17.8 14.7 13.5 76 2.5 NW 22 39 12 21 - - 0.0
29/02:30am 17.7 14.7 13.6 77 2.3 NW 22 35 12 19 - - 0.0
29/02:00am 17.8 14.8 13.7 77 2.3 NW 22 33 12 18 - - 0.0
29/01:30am 17.8 15.1 13.5 76 2.5 NW 20 39 11 21 - - 0.0
29/01:00am 17.7 15.3 13.8 78 2.2 NW 19 35 10 19 - - 0.0
29/12:30am 17.7 14.8 14.0 79 2.1 NW 22 35 12 19 - - 0.0
29/12:00am 17.7 15.2 14.0 79 2.1 NW 20 37 11 20 - - 0.0
 
Date/Time
WST
Temp
°C
App
Temp
°C
Dew
Point
Rel
Hum
%
Delta-T
°C
Wind Press
QNH
hPa
Press
MSL
hPa
Rain
since 9 am
mm
Dir
 
Spd
km/h
Gust
km/h
Spd
kts
Gust
kts
28/11:30pm 17.9 15.6 14.0 78 2.2 NW 19 37 10 20 - - 0.0
28/11:00pm 17.8 14.9 13.9 78 2.2 NW 22 33 12 18 - - 0.0
28/10:30pm 17.9 15.4 14.2 79 2.1 NW 20 32 11 17 - - 0.0
28/10:00pm 17.8 15.4 13.9 78 2.2 NW 19 32 10 17 - - 0.0
28/09:30pm 17.8 14.9 13.9 78 2.2 NW 22 33 12 18 - - 0.0
28/09:00pm 17.7 14.3 13.8 78 2.2 NW 24 35 13 19 - - 0.0
28/08:30pm 17.5 15.0 14.0 80 2.0 NW 20 35 11 19 - - 0.0
28/08:00pm 17.7 14.8 14.0 79 2.1 NW 22 37 12 20 - - 0.0
28/07:30pm 17.8 14.9 14.1 79 2.1 NW 22 41 12 22 - - 0.0
28/07:00pm 17.7 15.3 13.8 78 2.2 NW 19 35 10 19 - - 0.0
28/06:30pm 17.8 15.2 13.7 77 2.3 NW 20 39 11 21 - - 0.0
28/06:00pm 18.1 15.1 13.8 76 2.5 NW 22 32 12 17 - - 0.0
28/05:30pm 18.2 15.6 13.7 75 2.6 NW 20 35 11 19 - - 0.0
28/05:00pm 18.6 16.0 13.7 73 2.8 NW 20 32 11 17 - - 0.0
28/04:30pm 18.7 15.2 13.3 71 3.1 NNW 24 39 13 21 - - 0.0
28/04:00pm 19.1 15.5 13.1 68 3.4 NW 24 41 13 22 - - 0.0
28/03:30pm 19.6 16.0 13.1 66 3.7 NW 24 39 13 21 - - 0.0
28/03:00pm 20.3 15.9 13.0 63 4.2 NW 28 46 15 25 - - 0.0
28/02:32pm 19.2 14.7 12.5 65 3.8 NW 28 46 15 25 - - 0.0
28/02:30pm 19.2 15.0 12.5 65 3.8 NW 26 41 14 22 - - 0.0
28/02:07pm 19.6 14.9 12.1 62 4.2 NW 28 46 15 25 - - 0.0
28/02:00pm 19.8 16.1 12.8 64 4.0 NW 24 46 13 25 - - 0.0
28/01:32pm 19.5 15.0 12.7 65 3.9 NW 28 48 15 26 - - 0.0
28/01:30pm 19.3 15.6 12.8 66 3.7 NW 24 46 13 25 - - 0.0
28/01:00pm 19.3 15.3 13.0 67 3.6 NW 26 39 14 21 - - 0.0
28/12:30pm 19.6 16.5 13.3 67 3.6 NW 22 46 12 25 - - 0.0
28/12:00pm 19.4 15.8 13.1 67 3.6 NW 24 43 13 23 - - 0.0
28/11:30am 18.9 14.9 12.9 68 3.4 NW 26 50 14 27 - - 0.0
28/11:00am 19.5 16.3 13.0 66 3.7 NW 22 35 12 19 - - 0.0
28/10:30am 17.7 15.3 11.3 66 3.5 N 15 20 8 11 - - 0.0
28/10:00am 15.2 12.5 9.1 67 3.2 N 13 20 7 11 - - 0.0
28/09:30am 14.1 11.7 8.5 69 2.8 N 11 17 6 9 - - 0.0
28/09:00am 13.0 11.5 9.3 78 1.9 N 7 15 4 8 - - 0.0
28/08:30am 10.9 11.0 10.0 94 0.5 CALM 0 0 0 0 - - 0.0
28/08:00am 9.5 9.2 8.6 94 0.4 CALM 0 0 0 0 - - 0.0
28/07:30am 8.7 8.2 7.8 94 0.4 CALM 0 0 0 0 - - 0.0
28/07:00am 8.3 7.7 7.4 94 0.4 CALM 0 0 0 0 - - 0.0
28/06:30am 8.5 7.9 7.6 94 0.4 CALM 0 0 0 0 - - 0.0
28/06:00am 8.6 8.1 7.7 94 0.4 CALM 0 0 0 0 - - 0.0
28/05:30am 8.5 7.9 7.6 94 0.4 CALM 0 0 0 0 - - 0.0
28/05:00am 8.4 7.8 7.5 94 0.4 CALM 0 0 0 0 - - 0.0
28/04:30am 8.4 7.8 7.3 93 0.5 CALM 0 0 0 0 - - 0.0
28/04:00am 8.3 7.7 7.2 93 0.5 CALM 0 0 0 0 - - 0.0
28/03:30am 8.5 7.9 7.4 93 0.5 CALM 0 0 0 0 - - 0.0
28/03:00am 8.3 7.7 7.2 93 0.5 CALM 0 0 0 0 - - 0.0
28/02:30am 8.7 8.1 7.6 93 0.5 CALM 0 0 0 0 - - 0.0
28/02:00am 8.6 8.0 7.5 93 0.5 CALM 0 0 0 0 - - 0.0
28/01:30am 8.5 7.9 7.4 93 0.5 CALM 0 0 0 0 - - 0.0
28/01:00am 8.6 8.0 7.5 93 0.5 CALM 0 0 0 0 - - 0.0
28/12:30am 8.3 7.6 7.1 92 0.6 CALM 0 0 0 0 - - 0.0
28/12:00am 8.5 7.8 7.1 91 0.7 CALM 0 0 0 0 - - 0.0
 
Date/Time
WST
Temp
°C
App
Temp
°C
Dew
Point
Rel
Hum
%
Delta-T
°C
Wind Press
QNH
hPa
Press
MSL
hPa
Rain
since 9 am
mm
Dir
 
Spd
km/h
Gust
km/h
Spd
kts
Gust
kts
27/11:30pm 8.8 8.2 7.4 91 0.7 CALM 0 0 0 0 - - 0.0
27/11:00pm 9.1 8.5 7.4 89 0.8 CALM 0 0 0 0 - - 0.0
27/10:30pm 10.5 9.4 8.4 87 1.0 N 4 7 2 4 - - 0.0
27/10:00pm 11.0 10.7 8.8 86 1.1 CALM 0 0 0 0 - - 0.0
27/09:30pm 11.1 10.1 8.7 85 1.2 NNE 4 6 2 3 - - 0.0
27/09:00pm 11.1 10.8 8.5 84 1.3 CALM 0 0 0 0 - - 0.0
27/08:30pm 12.1 11.0 8.6 79 1.8 N 4 7 2 4 - - 0.0

Other Formats:

Comma delimited format used in spreadsheet applications
http://www.bom.gov.au/fwo/IDW60801/IDW60801.95621.axf

JavaScript Object Notation format (JSON) in row-major order
http://www.bom.gov.au/fwo/IDW60801/IDW60801.95621.json